Change the Weather History Date:

Saturday, January 19, 2013

  Actual Average Record
Temperature  
Mean Temperature 52 °F -  
Max Temperature 65 °F 58 °F 66 °F (2007)
Min Temperature 39 °F 41 °F 31 °F (2015)
Degree Days  
Heating Degree Days 13    
Growing Degree Days 2 (Base 50)    
Moisture  
Dew Point 50 °F    
Average Humidity 85    
Maximum Humidity 88    
Minimum Humidity 75    
Precipitation  
Precipitation 0.00 in 0.08 in - ()
Sea Level Pressure  
Sea Level Pressure 29.48 in    
Wind  
Wind Speed 3 mph ()    
Max Wind Speed 13 mph    
Max Gust Speed -    
Visibility 3.9 miles    
Events Rain    
Averages and records for this station are not official NWS values.
T = Trace of Precipitation, MM = Missing Value Source: Averaged Metar Reports

Daily Weather History Graph

Daily Weather History Graph

Search for Another Location

Airport or City:

Trip Planner

Search our weather history database for the weather conditions in past years. The results will help you decide how hot, cold, wet, or windy it might be!

Date:

Astronomy

Jan. 19, 2013 Rise Set
Actual Time 7:40 AM CET 5:29 PM CET
Civil Twilight 7:11 AM CET 5:58 PM CET
Nautical Twilight 6:38 AM CET 6:31 PM CET
Astronomical Twilight 6:06 AM CET 7:03 PM CET
Moon 11:46 AM CET (1/19) 12:59 AM CET (1/19)
Length of Visible Light 10h 47m
Length of Day
9h 48m
First Quarter, 54% of the Moon is Illuminated
Jan 19
First Quarter
Jan 27
Full
Feb 3
Last Quarter
Feb 10
New
Feb 17
First Quarter

Hourly Weather History & Observations

Time (CET) Temp. Dew Point Humidity Pressure Visibility Wind Dir Wind Speed Gust Speed Precip Events Conditions
12:55 AM 42.8 °F 39.2 °F 87% 29.62 in 4.3 mi NE 1.2 mph - N/A   Scattered Clouds
1:00 AM 42 °F 39 °F 84% 29.65 in 4 mi NE 1.2 mph - -   Mist
1:55 AM 42.8 °F 39.2 °F 87% 29.62 in 4.3 mi SE 2.3 mph - N/A   Scattered Clouds
2:55 AM 42.8 °F 39.2 °F 87% 29.59 in 3.7 mi ESE 1.2 mph - N/A   Scattered Clouds
3:55 AM 44.6 °F 41.0 °F 87% 29.56 in 3.7 mi Calm Calm - N/A   Scattered Clouds
4:00 AM 45 °F 41 °F 81% 29.59 in 4 mi Calm Calm - -   Mist
4:55 AM 44.6 °F 41.0 °F 87% 29.56 in 3.7 mi Calm Calm - N/A   Scattered Clouds
5:55 AM 46.4 °F 42.8 °F 87% 29.53 in 3.1 mi SSE 2.3 mph - N/A Rain Light Rain
6:55 AM 46.4 °F 42.8 °F 87% 29.50 in 2.5 mi SSE 2.3 mph - N/A Rain Light Rain
7:00 AM 46 °F 42 °F 83% 29.52 in 2 mi SSE 2.3 mph - - Rain Light Rain
7:55 AM 46.4 °F 42.8 °F 87% 29.50 in 1.9 mi SW 1.2 mph - N/A Rain Light Rain
8:55 AM 50.0 °F 46.4 °F 87% 29.50 in 1.9 mi South 2.3 mph - N/A   Scattered Clouds
9:55 AM 53.6 °F 50.0 °F 88% 29.53 in 1.9 mi SSW 2.3 mph - N/A   Mostly Cloudy
10:00 AM 54 °F 49 °F 79%  in 2 mi SSW 2.3 mph - -   Mist
10:55 AM 59.0 °F 53.6 °F 82% 29.50 in 3.1 mi South 4.6 mph - N/A   Mostly Cloudy
11:55 AM 60.8 °F 57.2 °F 88% 29.50 in 3.1 mi SSW 3.5 mph - N/A   Mostly Cloudy
12:55 PM 60.8 °F 57.2 °F 88% 29.47 in 2.5 mi SSW 5.8 mph - N/A Rain Light Rain
1:00 PM 62 °F 58 °F 81% 29.48 in 2 mi SSW 5.8 mph - - Rain Light Rain
1:55 PM 62.6 °F 57.2 °F 82% 29.44 in 4.3 mi SSW 6.9 mph - N/A   Mostly Cloudy
2:55 PM 64.4 °F 59.0 °F 83% 29.44 in 5.0 mi SSW 5.8 mph - N/A   Scattered Clouds
4:00 PM 64 °F 58 °F 75% 29.44 in 7 mi SE 4.6 mph - -   Partly Cloudy
4:55 PM 62.6 °F 57.2 °F 82% 29.44 in 6.2 mi East 3.5 mph - N/A   Mostly Cloudy
5:55 PM 59.0 °F 55.4 °F 88% 29.42 in 6.2 mi SE 8.1 mph - N/A   Scattered Clouds
6:55 PM 59.0 °F 55.4 °F 88% 29.44 in 3.7 mi SSE 8.1 mph - N/A Rain Light Rain
7:00 PM 59 °F 56 °F 85% 29.44 in 4 mi SSE 8.1 mph - - Rain Light Rain
7:55 PM 59.0 °F 55.4 °F 88% 29.42 in 4.3 mi ESE 11.5 mph - N/A   Mostly Cloudy
8:55 PM 59.0 °F 55.4 °F 88% 29.39 in 5.0 mi SE 12.7 mph - N/A   Mostly Cloudy
9:55 PM 59.0 °F 55.4 °F 88% 29.36 in 5.0 mi East 9.2 mph - N/A   Scattered Clouds
10:00 PM 59 °F 55 °F 84% 29.37 in 5 mi East 9.2 mph - -   Mist
10:55 PM 59.0 °F 55.4 °F 88% 29.36 in 5.0 mi East 3.5 mph - N/A   Scattered Clouds
11:55 PM 59.0 °F 55.4 °F 88% 29.36 in 6.2 mi East 3.5 mph - N/A   Scattered Clouds